Вернуться в каталог

UND ROADS 1

АктивенНаукаSSO
NORAD 64535·PAYLOAD·🇺🇸 United States

Запущен Jun 23, 2025 с Vandenberg Space Force Base

Loading…

Ближайшие Пролёты (ближайшие 24 часа)

TLE

СвежийSource: Space-Track

Эпоха: Sep 14, 2026, 02:26 UTC

1 64535U 25135H   26257.10201737  .00005113  00000-0  21819-3 0  9996
2 64535  97.4752  11.6642 0003448 210.0534 150.0505 15.23349474 68397

Отслеживайте UND ROADS 1 в реальном времени с AllMySat

Download on the App Store